Location: Nebraska Star Party
(42.6000°N, 100.8833°W)
Time: 16:15:10
(UTC-05:00)

Amateur Radio Satellites - All Passes

Search period start: 23 October 2014 15:45
Search period end: 24 October 2014 15:45
Location: Nebraska Star Party, 42.6000°N, 100.8833°W

Satellite Date Start Highest point End Downlink Frequencies (MHz)
Time Altitude Azimuth
TMSAT-1 23 Oct 15:47:24 15:52:42 81° 75° (ENE) 15:58:02 436.925 FM
UOSAT-12 23 Oct 15:51:34 15:56:03 52° 119° (ESE) 16:00:39 437.025 FM, 437.400 FM
Saudisat 1A 23 Oct 15:52:59 15:54:46 12° 34° (NE) 15:56:34 436.775 MHz
Sapphire 23 Oct 15:56:31 16:00:05 18° 255° (WSW) 16:03:39 437.095 MHz 1200 baud AX-25 AFSK
Oscar 19 23 Oct 15:58:48 16:01:21 14° 271° (W) 16:03:55 437.125 CW, 437.150 USB
SO-50 23 Oct 16:01:53 16:05:13 20° 320° (NW) 16:08:36 436.795 FM
ISS 23 Oct 16:10:19 16:13:10 25° 342° (NNW) 16:16:01 145.800 FM
AO-27 23 Oct 16:10:48 16:15:00 25° 266° (W) 16:19:15 436.795 MHz FM
Uosat F 23 Oct 16:52:52 16:57:43 52° 71° (ENE) 17:02:37 435.120 FM
KITSAT 1 23 Oct 17:14:26 17:18:47 15° 343° (NNW) 17:23:08 435.175 FM
AO-7 23 Oct 17:18:53 17:27:08 74° 254° (WSW) 17:35:27 29.400 - 29.500 MHz
Gurwin Techsat 1B 23 Oct 17:19:04 17:21:07 12° 272° (W) 17:23:10 435.225 FM
Hamsat 23 Oct 17:26:21 17:28:17 13° 63° (ENE) 17:30:12 145.90 MHz
Saudisat 1A 23 Oct 17:30:47 17:35:12 66° 54° (NE) 17:39:35 436.775 MHz
TMSAT-1 23 Oct 17:30:58 17:33:15 13° 272° (W) 17:35:32 436.925 FM
UOSAT-12 23 Oct 17:32:43 17:36:30 24° 318° (NW) 17:40:20 437.025 FM, 437.400 FM
ISS 23 Oct 17:48:22 17:50:41 17° 2° (N) 17:53:00 145.800 FM
JAS-2 23 Oct 17:58:34 18:04:17 54° 69° (ENE) 18:10:48 435.800 - 435.900 CW/SSB, 435.910 FM
OPAL 23 Oct 18:29:02 18:33:31 33° 99° (E) 18:37:57 ?
Uosat F 23 Oct 18:33:18 18:36:48 19° 268° (W) 18:40:21 435.120 FM
Hamsat 23 Oct 18:59:34 19:03:44 61° 259° (W) 19:07:54 145.90 MHz
Saudisat 1A 23 Oct 19:11:58 19:14:13 14° 251° (WSW) 19:16:28 436.775 MHz
KITSAT 1 23 Oct 19:14:21 19:18:22 14° 14° (NNE) 19:22:23 435.175 FM
AO-7 23 Oct 19:17:32 19:21:16 14° 273° (W) 19:25:03 29.400 - 29.500 MHz
ISS 23 Oct 19:25:05 19:28:07 31° 22° (NNE) 19:31:10 145.800 FM
SO-67 23 Oct 19:34:45 19:37:57 37° 73° (ENE) 19:41:09 435.3500 MHz FM
HO-68 23 Oct 19:38:09 19:41:01 13° 48° (NE) 19:43:52 435.675 MHz FM
JAS-2 23 Oct 19:45:08 19:49:51 24° 270° (W) 19:55:03 435.800 - 435.900 CW/SSB, 435.910 FM
OPAL 23 Oct 20:08:01 20:12:19 30° 296° (WNW) 20:16:35 ?
STRAND 1 23 Oct 20:11:01 20:15:54 42° 98° (E) 20:20:45 ?
ISS 23 Oct 21:01:42 21:04:54 43° 220° (SW) 21:08:05 145.800 FM
KITSAT 1 23 Oct 21:09:28 21:16:43 34° 42° (NE) 21:23:55 435.175 FM
SO-67 23 Oct 21:09:38 21:11:06 12° 269° (W) 21:12:34 435.3500 MHz FM
SO-50 23 Oct 21:11:19 21:14:00 15° 35° (NE) 21:16:41 436.795 FM
Oscar 11 23 Oct 21:13:15 21:14:34 11° 61° (ENE) 21:15:54 145.825 FM, Beacon 2401.500 USB
RS-15 23 Oct 21:19:11 21:23:48 14° 96° (E) 21:28:22 29.354 - 29.394 USB, Beacon 29.352 USB
HO-68 23 Oct 21:20:17 21:27:17 61° 68° (ENE) 21:34:20 435.675 MHz FM
STRAND 1 23 Oct 21:50:40 21:54:52 26° 296° (WNW) 21:59:02 ?
ZACube-1 23 Oct 21:57:32 22:00:15 16° 63° (ENE) 22:02:57 437.345 MHz
UKube-1 23 Oct 22:03:24 22:07:31 43° 71° (ENE) 22:11:39 145.840 MHz, 145.915 MHz
FUNcube-1 23 Oct 22:40:42 22:44:59 41° 71° (ENE) 22:49:14 145.950 - 145.970 MHz USB
UOSAT-12 23 Oct 22:42:12 22:43:57 12° 31° (NNE) 22:45:41 437.025 FM, 437.400 FM
Oscar 11 23 Oct 22:45:48 22:50:08 77° 258° (WSW) 22:54:29 145.825 FM, Beacon 2401.500 USB
SO-50 23 Oct 22:50:33 22:55:24 73° 55° (NE) 23:00:16 436.795 FM
KITSAT 1 23 Oct 23:04:41 23:12:41 67° 244° (WSW) 23:20:37 435.175 FM
HO-68 23 Oct 23:09:33 23:15:23 27° 266° (W) 23:21:17 435.675 MHz FM
RS-15 23 Oct 23:23:01 23:33:51 68° 116° (ESE) 23:44:38 29.354 - 29.394 USB, Beacon 29.352 USB
ZACube-1 23 Oct 23:31:39 23:36:11 59° 260° (W) 23:40:41 437.345 MHz
UKube-1 23 Oct 23:40:55 23:43:54 18° 267° (W) 23:46:53 145.840 MHz, 145.915 MHz
FUNcube-1 24 Oct 00:18:04 00:21:29 21° 267° (W) 00:24:54 145.950 - 145.970 MHz USB
UOSAT-12 24 Oct 00:20:30 00:25:09 55° 52° (NE) 00:29:44 437.025 FM, 437.400 FM
MaSat-1 24 Oct 00:28:31 00:32:13 31° 110° (ESE) 00:35:39 437.345 MHz
SO-50 24 Oct 00:32:43 00:35:23 15° 251° (WSW) 00:38:04 436.795 FM
KITSAT 1 24 Oct 01:03:59 01:06:31 12° 263° (W) 01:09:02 435.175 FM
RS-15 24 Oct 01:36:44 01:46:54 42° 321° (NW) 01:57:10 29.354 - 29.394 USB, Beacon 29.352 USB
Oscar 10/S400 24 Oct 02:00:10 02:59:22 21° 240° (WSW) 05:25:29 145.825 - 145.975 CW/USB, Beacon 145.810 USB
UOSAT-12 24 Oct 02:01:39 02:04:52 19° 250° (WSW) 02:08:04 437.025 FM, 437.400 FM
MaSat-1 24 Oct 02:04:36 02:07:54 23° 304° (NW) 02:10:57 437.345 MHz
JAS-1B 24 Oct 02:25:38 02:31:13 27° 96° (E) 02:37:34 435.800 - 435.900 CW/SSB
Oscar 19 24 Oct 02:27:54 02:32:02 24° 94° (E) 02:36:08 437.125 CW, 437.150 USB
AO-27 24 Oct 02:44:18 02:47:01 14° 90° (E) 02:49:44 436.795 MHz FM
Oscar 16 24 Oct 03:12:50 03:17:57 65° 102° (ESE) 03:23:01 437.025 USB, Beacon 2401.1428
AO-Echo 24 Oct 03:15:43 03:20:40 38° 97° (E) 03:25:34 ?
Uribyol 2 24 Oct 03:30:50 03:35:45 40° 98° (E) 03:40:37 436.500 FM
ITAMSAT 1 24 Oct 03:36:34 03:41:34 43° 99° (E) 03:46:30 435.822 SSB
PCSat 24 Oct 03:37:45 03:39:31 12° 102° (ESE) 03:41:18 145.825 MHz
Gurwin Techsat 1B 24 Oct 03:51:04 03:55:49 32° 96° (E) 04:00:31 435.225 FM
RS-15 24 Oct 03:55:11 04:03:19 23° 355° (N) 04:11:35 29.354 - 29.394 USB, Beacon 29.352 USB
TMSAT-1 24 Oct 04:02:58 04:07:38 30° 95° (E) 04:12:16 436.925 FM
Oscar 19 24 Oct 04:06:43 04:11:31 42° 291° (WNW) 04:16:18 437.125 CW, 437.150 USB
JAS-1B 24 Oct 04:15:39 04:22:02 58° 289° (WNW) 04:29:38 435.800 - 435.900 CW/SSB
AO-27 24 Oct 04:21:50 04:27:04 73° 287° (WNW) 04:32:16 436.795 MHz FM
Oscar 16 24 Oct 04:53:31 04:56:46 17° 299° (WNW) 05:00:00 437.025 USB, Beacon 2401.1428
Sapphire 24 Oct 04:54:14 04:59:27 53° 114° (ESE) 05:04:44 437.095 MHz 1200 baud AX-25 AFSK
AO-Echo 24 Oct 04:54:43 04:59:16 30° 294° (WNW) 05:03:49 ?
Uosat F 24 Oct 05:01:18 05:04:10 15° 91° (E) 05:07:00 435.120 FM
Uribyol 2 24 Oct 05:10:43 05:15:01 27° 295° (WNW) 05:19:17 436.500 FM
ITAMSAT 1 24 Oct 05:16:34 05:20:48 25° 296° (WNW) 05:25:00 435.822 SSB
PCSat 24 Oct 05:16:39 05:22:04 87° 119° (ESE) 05:27:32 145.825 MHz
AO-7 24 Oct 05:19:53 05:27:27 37° 98° (E) 05:34:59 29.400 - 29.500 MHz
Gurwin Techsat 1B 24 Oct 05:31:00 05:35:45 34° 293° (WNW) 05:40:29 435.225 FM
TMSAT-1 24 Oct 05:42:46 05:47:33 36° 292° (WNW) 05:52:20 436.925 FM
OPAL 24 Oct 05:44:20 05:49:26 67° 71° (ENE) 05:54:31 ?
AO-27 24 Oct 06:04:42 06:05:39 11° 304° (NW) 06:06:35 436.795 MHz FM
RS-15 24 Oct 06:10:44 06:20:25 33° 30° (NNE) 06:30:21 29.354 - 29.394 USB, Beacon 29.352 USB
JAS-1B 24 Oct 06:10:54 06:11:37 10° 307° (NW) 06:12:21 435.800 - 435.900 CW/SSB
Uosat F 24 Oct 06:38:23 06:43:24 66° 287° (WNW) 06:48:23 435.120 FM
Sapphire 24 Oct 06:38:39 06:43:10 27° 313° (NW) 06:47:44 437.095 MHz 1200 baud AX-25 AFSK
Hamsat 24 Oct 06:45:01 06:48:16 21° 94° (E) 06:51:31 145.90 MHz
JAS-2 24 Oct 06:50:50 06:58:24 53° 98° (E) 07:05:59 435.800 - 435.900 CW/SSB, 435.910 FM
PCSat 24 Oct 07:02:32 07:06:13 18° 319° (NW) 07:09:56 145.825 MHz
AO-7 24 Oct 07:12:28 07:20:26 53° 296° (WNW) 07:28:24 29.400 - 29.500 MHz
OPAL 24 Oct 07:25:47 07:28:45 15° 267° (W) 07:31:43 ?
STRAND 1 24 Oct 07:27:32 07:32:35 65° 73° (ENE) 07:37:42 ?
Saudisat 1A 24 Oct 07:39:56 07:42:12 14° 109° (ESE) 07:44:28 436.775 MHz
Hamsat 24 Oct 08:20:31 08:24:16 32° 290° (WNW) 08:28:01 145.90 MHz
RS-15 24 Oct 08:23:16 08:34:30 86° 57° (ENE) 08:46:12 29.354 - 29.394 USB, Beacon 29.352 USB
SO-67 24 Oct 08:29:58 08:33:15 40° 98° (E) 08:36:30 435.3500 MHz FM
JAS-2 24 Oct 08:36:14 08:43:07 37° 296° (WNW) 08:50:06 435.800 - 435.900 CW/SSB, 435.910 FM
AO-7 24 Oct 09:08:05 09:11:20 13° 318° (NW) 09:14:35 29.400 - 29.500 MHz
STRAND 1 24 Oct 09:09:14 09:12:14 16° 270° (W) 09:15:16 ?
Saudisat 1A 24 Oct 09:16:53 09:21:14 65° 306° (NW) 09:25:38 436.775 MHz
SO-67 24 Oct 10:04:21 10:05:52 12° 294° (WNW) 10:07:22 435.3500 MHz FM
MaSat-1 24 Oct 10:13:50 10:16:28 58° 62° (ENE) 10:18:52 437.345 MHz
Oscar 11 24 Oct 10:33:39 10:36:39 18° 93° (E) 10:39:38 145.825 FM, Beacon 2401.500 USB
HO-68 24 Oct 10:34:35 10:41:42 59° 102° (ESE) 10:48:45 435.675 MHz FM
RS-15 24 Oct 10:37:04 10:45:32 26° 258° (WSW) 10:54:19 29.354 - 29.394 USB, Beacon 29.352 USB
Saudisat 1A 24 Oct 10:59:58 11:01:40 12° 326° (NW) 11:03:23 436.775 MHz
ZACube-1 24 Oct 11:20:52 11:24:23 24° 94° (E) 11:27:49 437.345 MHz
UKube-1 24 Oct 11:26:37 11:31:00 73° 103° (ESE) 11:35:21 145.840 MHz, 145.915 MHz
KITSAT 1 24 Oct 11:42:13 11:46:46 16° 100° (E) 11:51:19 435.175 FM
Sapphire 24 Oct 12:00:18 12:01:56 11° 33° (NNE) 12:03:34 437.095 MHz 1200 baud AX-25 AFSK
FUNcube-1 24 Oct 12:05:13 12:09:31 77° 102° (ESE) 12:13:41 145.950 - 145.970 MHz USB
Oscar 11 24 Oct 12:08:58 12:13:00 40° 289° (WNW) 12:17:02 145.825 FM, Beacon 2401.500 USB
PCSat 24 Oct 12:21:48 12:25:07 16° 39° (NE) 12:28:25 145.825 MHz
Oscar 10/S400 24 Oct 12:22:13 12:37:50 19° 151° (SSE) 12:49:48 145.825 - 145.975 CW/USB, Beacon 145.810 USB
HO-68 24 Oct 12:22:58 12:28:58 30° 301° (WNW) 12:34:58 435.675 MHz FM
Oscar 16 24 Oct 12:54:21 12:56:59 14° 59° (ENE) 12:59:36 437.025 USB, Beacon 2401.1428
ZACube-1 24 Oct 12:57:05 13:00:47 29° 292° (WNW) 13:04:23 437.345 MHz
UKube-1 24 Oct 13:04:53 13:06:36 12° 300° (WNW) 13:08:19 145.840 MHz, 145.915 MHz
SO-50 24 Oct 13:07:33 13:10:42 19° 110° (ESE) 13:13:54 436.795 FM
JAS-1B 24 Oct 13:14:34 13:18:39 20° 60° (ENE) 13:22:39 435.800 - 435.900 CW/SSB
ITAMSAT 1 24 Oct 13:21:33 13:21:50 10° 55° (NE) 13:22:06 435.822 SSB
KITSAT 1 24 Oct 13:32:50 13:40:54 82° 119° (ESE) 13:49:01 435.175 FM
Sapphire 24 Oct 13:41:26 13:46:43 50° 54° (NE) 13:51:58 437.095 MHz 1200 baud AX-25 AFSK
ISS 24 Oct 13:43:59 13:47:07 39° 139° (SE) 13:50:16 145.800 FM
FUNcube-1 24 Oct 13:44:18 13:45:14 11° 300° (WNW) 13:46:09 145.950 - 145.970 MHz USB
Oscar 19 24 Oct 13:45:18 13:50:02 38° 68° (ENE) 13:54:46 437.125 CW, 437.150 USB
AO-27 24 Oct 14:02:37 14:06:46 25° 64° (ENE) 14:10:56 436.795 MHz FM
PCSat 24 Oct 14:03:58 14:09:26 80° 59° (ENE) 14:14:51 145.825 MHz
AO-Echo 24 Oct 14:29:22 14:34:04 49° 71° (ENE) 14:38:57 ?
Oscar 16 24 Oct 14:30:28 14:35:39 82° 257° (WSW) 14:40:50 437.025 USB, Beacon 2401.1428
AO-7 24 Oct 14:33:05 14:36:28 13° 42° (NE) 14:39:52 29.400 - 29.500 MHz
UOSAT-12 24 Oct 14:34:41 14:36:57 14° 108° (ESE) 14:39:15 437.025 FM, 437.400 FM
SO-50 24 Oct 14:46:26 14:50:50 51° 309° (NW) 14:55:23 436.795 FM
Uribyol 2 24 Oct 14:49:16 14:54:26 66° 73° (ENE) 14:59:38 436.500 FM
ITAMSAT 1 24 Oct 14:55:11 15:00:21 70° 73° (ENE) 15:05:34 435.822 SSB
JAS-1B 24 Oct 15:03:03 15:08:57 58° 258° (WSW) 15:14:33 435.800 - 435.900 CW/SSB
Gurwin Techsat 1B 24 Oct 15:12:44 15:17:53 54° 71° (ENE) 15:23:04 435.225 FM
ISS 24 Oct 15:20:47 15:23:51 33° 337° (NNW) 15:26:56 145.800 FM
TMSAT-1 24 Oct 15:24:17 15:29:23 51° 71° (ENE) 15:34:31 436.925 FM
Oscar 19 24 Oct 15:25:08 15:29:27 27° 265° (W) 15:33:47 437.125 CW, 437.150 USB
Sapphire 24 Oct 15:25:29 15:29:49 25° 252° (WSW) 15:34:08 437.095 MHz 1200 baud AX-25 AFSK
KITSAT 1 24 Oct 15:30:22 15:37:12 29° 321° (NW) 15:44:05 435.175 FM
